Torna al catalogo

FENGYUN 1C DEB

AttivoSSO
NORAD 30751·DEBRIS·🇨🇳 China

Lanciato May 10, 1999 da Taiyuan Satellite Launch Center

Loading…

Prossimi Passaggi (prossime 24 ore)

TLE

AggiornatoSource: Space-Track

Epoca: Sep 14, 2026, 03:07 UTC

1 30751U 99025ATM 26257.13046690  .00001406  00000-0  72029-3 0  9996
2 30751  98.8366 319.3116 0050855  31.1389 358.6543 14.16413709  1719

Traccia FENGYUN 1C DEB in tempo reale con AllMySat

Download on the App Store